When you browse on this site, cookies collect data to enhance your experience and personalize the content and advertising you see.
Visit our Privacy Policy to learn more. By continuing to use the site, you agree to this use of cookies and data.
  • In United Kingdom
  • List of Countries
  • For 7 days
  • Water Temperature
  • Weather Map
  • Weather Widgets
  • user-avatar
    Login

    Hourly Weather Olesno

    Today, 19 August, Monday

    Time Temperature Precipitation Wind Pressure Humidity
    00:00 +22°C° 0 mm 3 mps 738 mmHg 63%
    01:00 +22°C° 0 mm 3 mps 738 mmHg 64%
    02:00 +22°C° 0 mm 3 mps 738 mmHg 64%
    03:00 +21°C° 0 mm 2 mps 738 mmHg 64%
    04:00 +21°C° 0 mm 2 mps 738 mmHg 65%
    05:00 +21°C° 0 mm 2 mps 738 mmHg 67%
    06:00 +23°C° 0 mm 2 mps 739 mmHg 70%
    07:00 +23°C° 0 mm 2 mps 739 mmHg 72%
    08:00 +24°C° 0 mm 2 mps 739 mmHg 70%
    09:00 +25°C° 0 mm 2 mps 739 mmHg 68%
    10:00 +26°C° 0 mm 2 mps 740 mmHg 66%
    11:00 +27°C° 0.6 mm 2 mps 740 mmHg 62%
    12:00 +28°C° 0.6 mm 2 mps 740 mmHg 58%
    13:00 +28°C° 0.6 mm 2 mps 741 mmHg 55%
    14:00 +26°C° 0.9 mm 3 mps 741 mmHg 64%
    15:00 +23°C° 0.9 mm 4 mps 741 mmHg 74%
    16:00 +21°C° 0.9 mm 5 mps 741 mmHg 83%
    17:00 +20°C° 0.1 mm 4 mps 741 mmHg 85%
    18:00 +20°C° 0.1 mm 3 mps 742 mmHg 88%
    19:00 +19°C° 0.1 mm 2 mps 742 mmHg 90%
    20:00 +20°C° 0 mm 1 mps 743 mmHg 90%
    21:00 +19°C° 0 mm 1 mps 743 mmHg 90%
    22:00 +19°C° 0 mm 1 mps 743 mmHg 90%
    23:00 +19°C° 0 mm 1 mps 743 mmHg 90%

    Tomorrow, 20 August, Tuesday

    Time Temperature Precipitation Wind Pressure Humidity
    00:00 +19°C° 0 mm 1 mps 744 mmHg 91%
    01:00 +19°C° 0 mm 1 mps 744 mmHg 92%
    02:00 +19°C° 0 mm 1 mps 744 mmHg 91%
    03:00 +17°C° 0 mm 0 mps 744 mmHg 90%
    04:00 +16°C° 0 mm 0 mps 744 mmHg 90%
    05:00 +17°C° 0 mm 0 mps 744 mmHg 87%
    06:00 +17°C° 0 mm 0 mps 745 mmHg 85%
    07:00 +20°C° 0 mm 1 mps 745 mmHg 82%
    08:00 +22°C° 0 mm 1 mps 745 mmHg 72%
    09:00 +23°C° 0 mm 2 mps 745 mmHg 62%
    10:00 +25°C° 0 mm 3 mps 745 mmHg 51%
    11:00 +25°C° 0 mm 3 mps 745 mmHg 49%
    12:00 +26°C° 0 mm 3 mps 745 mmHg 46%
    13:00 +27°C° 0 mm 3 mps 745 mmHg 43%
    14:00 +27°C° 0 mm 3 mps 744 mmHg 45%
    15:00 +27°C° 0 mm 3 mps 744 mmHg 47%
    16:00 +27°C° 0 mm 4 mps 743 mmHg 48%
    17:00 +26°C° 0 mm 4 mps 743 mmHg 53%
    18:00 +25°C° 0 mm 3 mps 743 mmHg 58%
    19:00 +22°C° 0 mm 3 mps 743 mmHg 64%
    20:00 +22°C° 0.2 mm 3 mps 743 mmHg 68%
    21:00 +21°C° 0.2 mm 3 mps 743 mmHg 72%
    22:00 +21°C° 0.2 mm 3 mps 743 mmHg 76%
    23:00 +21°C° 0 mm 2 mps 743 mmHg 79%

    Day after tomorrow, 21 August, Wednesday

    Time Temperature Precipitation Wind Pressure Humidity
    00:00 +20°C° 0 mm 2 mps 743 mmHg 82%
    01:00 +21°C° 0 mm 1 mps 744 mmHg 85%
    02:00 +19°C° 0.1 mm 2 mps 744 mmHg 85%
    03:00 +19°C° 0.1 mm 3 mps 744 mmHg 84%
    04:00 +18°C° 0.1 mm 4 mps 744 mmHg 84%
    05:00 +18°C° 0 mm 4 mps 744 mmHg 82%
    06:00 +17°C° 0 mm 5 mps 745 mmHg 81%
    07:00 +16°C° 0 mm 5 mps 745 mmHg 79%
    08:00 +18°C° 0 mm 4 mps 745 mmHg 77%
    09:00 +18°C° 0 mm 4 mps 746 mmHg 76%
    10:00 +18°C° 0 mm 4 mps 746 mmHg 74%
    11:00 +19°C° 0 mm 4 mps 746 mmHg 70%
    12:00 +20°C° 0 mm 5 mps 746 mmHg 66%
    13:00 +21°C° 0 mm 5 mps 746 mmHg 62%
    14:00 +21°C° 0 mm 5 mps 746 mmHg 62%
    15:00 +21°C° 0 mm 5 mps 746 mmHg 61%
    16:00 +21°C° 0 mm 4 mps 746 mmHg 61%
    17:00 +20°C° 0 mm 4 mps 746 mmHg 66%
    18:00 +19°C° 0 mm 3 mps 746 mmHg 71%
    19:00 +18°C° 0 mm 2 mps 746 mmHg 77%
    20:00 +17°C° 0 mm 2 mps 746 mmHg 79%
    21:00 +17°C° 0 mm 2 mps 746 mmHg 82%
    22:00 +16°C° 0 mm 2 mps 747 mmHg 84%
    23:00 +16°C° 0 mm 2 mps 746 mmHg 84%

    22 August, Thursday

    Time Temperature Precipitation Wind Pressure Humidity
    00:00 +16°C° 0 mm 2 mps 746 mmHg 83%
    01:00 +16°C° 0 mm 2 mps 746 mmHg 83%
    02:00 +16°C° 0 mm 2 mps 746 mmHg 87%
    03:00 +15°C° 0 mm 2 mps 746 mmHg 90%
    04:00 +14°C° 0 mm 2 mps 746 mmHg 94%
    05:00 +15°C° 0 mm 2 mps 746 mmHg 91%
    06:00 +16°C° 0 mm 2 mps 746 mmHg 88%
    07:00 +16°C° 0 mm 3 mps 746 mmHg 86%
    08:00 +17°C° 0 mm 3 mps 746 mmHg 82%
    09:00 +18°C° 0 mm 3 mps 746 mmHg 79%
    10:00 +19°C° 0 mm 3 mps 747 mmHg 76%
    11:00 +20°C° 0 mm 3 mps 746 mmHg 73%
    12:00 +20°C° 0 mm 3 mps 746 mmHg 70%
    13:00 +21°C° 0 mm 3 mps 746 mmHg 67%
    14:00 +21°C° 0 mm 2 mps 746 mmHg 67%
    15:00 +21°C° 0 mm 2 mps 746 mmHg 68%
    16:00 +21°C° 0 mm 2 mps 746 mmHg 68%
    17:00 +20°C° 0 mm 2 mps 746 mmHg 70%
    18:00 +20°C° 0 mm 2 mps 746 mmHg 73%
    19:00 +20°C° 0 mm 1 mps 746 mmHg 76%
    20:00 +20°C° 0 mm 1 mps 747 mmHg 76%
    21:00 +20°C° 0 mm 1 mps 747 mmHg 76%
    22:00 +20°C° 0 mm 1 mps 747 mmHg 77%
    23:00 +20°C° 0 mm 1 mps 747 mmHg 77%

    23 August, Friday

    Time Temperature Precipitation Wind Pressure Humidity
    00:00 +19°C° 0 mm 2 mps 747 mmHg 77%
    01:00 +19°C° 0 mm 2 mps 747 mmHg 77%
    02:00 +19°C° 0 mm 2 mps 747 mmHg 78%
    03:00 +18°C° 0 mm 2 mps 747 mmHg 78%
    04:00 +18°C° 0 mm 2 mps 747 mmHg 79%
    05:00 +18°C° 0 mm 3 mps 747 mmHg 78%
    06:00 +19°C° 0 mm 3 mps 747 mmHg 77%
    07:00 +19°C° 0 mm 4 mps 748 mmHg 75%
    08:00 +20°C° 0 mm 4 mps 748 mmHg 71%
    09:00 +21°C° 0 mm 4 mps 748 mmHg 66%
    10:00 +22°C° 0 mm 5 mps 748 mmHg 61%
    11:00 +23°C° 0 mm 4 mps 748 mmHg 60%
    12:00 +23°C° 0 mm 4 mps 748 mmHg 59%
    13:00 +23°C° 0 mm 4 mps 747 mmHg 57%
    14:00 +25°C° 0 mm 4 mps 747 mmHg 56%
    15:00 +25°C° 0 mm 4 mps 747 mmHg 55%
    16:00 +25°C° 0 mm 4 mps 747 mmHg 54%
    17:00 +23°C° 0 mm 4 mps 747 mmHg 59%
    18:00 +22°C° 0 mm 4 mps 746 mmHg 63%
    19:00 +21°C° 0 mm 3 mps 746 mmHg 67%
    20:00 +20°C° 0 mm 3 mps 746 mmHg 68%
    21:00 +20°C° 0 mm 4 mps 747 mmHg 69%
    22:00 +19°C° 0 mm 4 mps 747 mmHg 71%
    23:00 +19°C° 0 mm 4 mps 746 mmHg 72%

    24 August, Saturday

    Time Temperature Precipitation Wind Pressure Humidity
    00:00 +18°C° 0 mm 4 mps 746 mmHg 74%
    01:00 +18°C° 0 mm 4 mps 746 mmHg 76%
    02:00 +17°C° 0 mm 5 mps 746 mmHg 78%
    03:00 +17°C° 0 mm 5 mps 746 mmHg 80%
    04:00 +16°C° 0 mm 5 mps 745 mmHg 82%
    05:00 +17°C° 0 mm 5 mps 745 mmHg 80%
    06:00 +19°C° 0 mm 5 mps 745 mmHg 78%
    07:00 +19°C° 0 mm 6 mps 745 mmHg 76%
    08:00 +21°C° 0 mm 5 mps 745 mmHg 71%
    09:00 +22°C° 0 mm 5 mps 745 mmHg 67%
    10:00 +25°C° 0 mm 5 mps 745 mmHg 63%
    11:00 +26°C° 0 mm 5 mps 745 mmHg 62%
    12:00 +27°C° 0 mm 5 mps 744 mmHg 60%
    13:00 +28°C° 0 mm 5 mps 744 mmHg 58%
    14:00 +28°C° 0 mm 5 mps 744 mmHg 59%
    15:00 +28°C° 0 mm 5 mps 743 mmHg 60%
    16:00 +28°C° 0 mm 5 mps 743 mmHg 61%
    17:00 +27°C° 0 mm 5 mps 743 mmHg 67%
    18:00 +26°C° 0 mm 4 mps 743 mmHg 72%
    19:00 +23°C° 0 mm 4 mps 742 mmHg 78%
    20:00 +23°C° 0 mm 4 mps 742 mmHg 80%
    21:00 +22°C° 0 mm 4 mps 742 mmHg 83%
    22:00 +22°C° 0 mm 4 mps 742 mmHg 85%
    23:00 +21°C° 0 mm 4 mps 742 mmHg 86%
    Show more